Home   Weather   Oakhurst   Past weeks
Flag for USA

Past Weather in Oakhurst, California, USA — Yesterday and Last 2 Weeks

Now
73 °F

Passing clouds.


Feels Like: 77 °F
Forecast: 78 / 53 °F
Wind: 7 mph from Northwest

Location: Fresno Air Terminal

Current Time: Oct 20, 2019 at 5:15:11 pm

Latest Report: Oct 20, 2019 at 3:53 pm


Visibility: 10 mi

Pressure: 30.05 "Hg

Humidity: 41%

Dew Point: 48 °F

Location of OakhurstLocation

Past Weather in Oakhurst — Graph

°F

Oakhurst Temperature Yesterday

Maximum temperature yesterday: 75 °F (at 4:53 pm)
Minimum temperature yesterday: 50 °F (at 5:53 am)
Average temperature yesterday: 63 °F

High & Low Weather Summary for the Past Weeks

 TemperatureHumidityPressure
High91 °F (Oct 7, 4:53 pm)93% (Oct 20, 5:53 am)30.11 "Hg (Oct 20, 5:53 am)
Low49 °F (Oct 10, 6:53 am)11% (Oct 13, 3:53 pm)29.77 "Hg (Oct 13, 5:53 pm)
Average66 °F42%29.94 "Hg
* Reported Oct 5 3:53 pm — Oct 20 3:53 pm, Oakhurst. Weather by CustomWeather, © 2019

Note: Actual official high and low records may vary slightly from our data, if they occured in-between our weather recording intervals... More about our weather records

Advertising

Oakhurst Weather History for the Previous 24 Hours

Scroll right to see more
 ConditionsComfort  
Time TempWeatherWind HumidityBarometerVisibility
3:53 pm
Sun, Oct 20
73 °FPassing clouds.7 mph41%30.05 "Hg10 mi
2:53 pm73 °FSunny.5 mph40%30.05 "Hg10 mi
1:53 pm71 °FPassing clouds.3 mph45%30.07 "Hg10 mi
12:53 pm69 °FPassing clouds.5 mph53%30.10 "Hg10 mi
11:53 am66 °FPassing clouds.No wind59%30.11 "Hg9 mi
10:53 am63 °FPassing clouds.3 mph65%30.11 "Hg9 mi
9:53 am59 °FBroken clouds.3 mph78%30.10 "Hg8 mi
8:53 am56 °FBroken clouds.6 mph84%30.09 "Hg8 mi
7:53 am55 °FBroken clouds.7 mph90%30.06 "Hg8 mi
6:53 am56 °FMostly cloudy.7 mph90%30.04 "Hg9 mi
5:53 am55 °FFog.10 mph93%30.03 "Hg6 mi
4:53 am56 °FPartly cloudy.7 mph90%30.02 "Hg10 mi
3:53 am57 °FPassing clouds.9 mph90%30.01 "Hg10 mi
2:53 am59 °FClear.7 mph84%30.01 "Hg10 mi
1:53 am60 °FPassing clouds.10 mph80%30.01 "Hg10 mi
12:53 am61 °FPassing clouds.12 mph78%30.01 "Hg10 mi
11:53 pm
Sat, Oct 19
63 °FPassing clouds.10 mph73%30.01 "Hg10 mi
10:53 pm64 °FPassing clouds.14 mph68%30.01 "Hg10 mi
9:53 pm66 °FPassing clouds.12 mph63%29.99 "Hg10 mi
8:53 pm68 °FPassing clouds.12 mph57%29.99 "Hg10 mi
7:53 pm69 °FPassing clouds.8 mph49%29.99 "Hg10 mi
6:53 pm71 °FPartly cloudy.12 mph45%29.99 "Hg10 mi
5:53 pm74 °FBroken clouds.7 mph36%29.98 "Hg10 mi
Weather by CustomWeather, © 2019

See weather overview